TimeCDT,TemperatureF,Dew PointF,Humidity,Sea Level PressureIn,VisibilityMPH,Wind Direction,Wind SpeedMPH,Gust SpeedMPH,PrecipitationIn,Events,Conditions,WindDirDegrees,DateUTC
12:47 AM,59.0,53.6,82,29.84,8.0,Calm,Calm,-,N/A,,Clear,0,2012-10-09 05:47:00
12:50 AM,63,55,69,29.83,5,North,4.5,,,,Partly Cloudy,350,2012-10-09 05:50:00
1:43 AM,59.0,53.6,82,30.26,8.0,Calm,Calm,-,N/A,,Clear,0,2012-10-09 06:43:00
2:43 AM,57.2,53.6,88,30.25,8.0,Calm,Calm,-,N/A,,Clear,0,2012-10-09 07:43:00
3:53 AM,53.6,51.8,94,29.83,8.0,Calm,Calm,-,N/A,,Clear,0,2012-10-09 08:53:00
4:43 AM,51.8,51.8,100,30.24,8.0,Calm,Calm,-,N/A,,Clear,0,2012-10-09 09:43:00
5:45 AM,50.0,50.0,100,30.25,8.0,Calm,Calm,-,N/A,,Clear,0,2012-10-09 10:45:00
6:54 AM,50.0,50.0,100,29.90,7.0,Calm,Calm,-,N/A,,Scattered Clouds,0,2012-10-09 11:54:00
6:55 AM,63,57,75,29.99,7,North,4.5,,,,Partly Cloudy,0,2012-10-09 11:55:00
7:46 AM,50.0,50.0,100,30.27,7.0,Calm,Calm,-,N/A,,Mostly Cloudy,0,2012-10-09 12:46:00
8:45 AM,57.2,55.4,94,30.29,7.0,Calm,Calm,-,N/A,,Scattered Clouds,0,2012-10-09 13:45:00
9:14 AM,60.8,55.4,82,30.30,7.0,Calm,Calm,-,N/A,,Scattered Clouds,0,2012-10-09 14:14:00
9:40 AM,64.4,53.6,68,29.89,7.0,Calm,Calm,-,N/A,,Clear,0,2012-10-09 14:40:00
10:46 AM,68.0,55.4,64,30.31,8.0,Calm,Calm,-,N/A,,Clear,0,2012-10-09 15:46:00
11:45 AM,71.6,55.4,57,30.30,8.0,North,6.9,-,N/A,,Clear,10,2012-10-09 16:45:00
12:49 PM,75.2,55.4,50,29.85,8.0,Calm,Calm,-,N/A,,Partly Cloudy,0,2012-10-09 17:49:00
12:55 PM,77,56,38,29.93,9,ENE,6.7,,,,Partly Cloudy,60,2012-10-09 17:55:00
1:40 PM,75.2,55.4,50,30.23,8.0,Calm,Calm,-,N/A,,Scattered Clouds,0,2012-10-09 18:40:00
2:40 PM,78.8,53.6,42,30.19,8.0,WSW,4.6,-,N/A,,Scattered Clouds,240,2012-10-09 19:40:00
3:47 PM,78.8,55.4,44,29.77,8.0,SSW,8.1,-,N/A,,Scattered Clouds,210,2012-10-09 20:47:00
3:50 PM,76,57,42,29.80,7,SSE,4.5,,,Rain,Light Drizzle,160,2012-10-09 20:50:00
4:55 PM,77.0,57.2,50,30.15,7.0,South,6.9,-,N/A,,Mostly Cloudy,190,2012-10-09 21:55:00
5:41 PM,73.4,55.4,53,30.14,7.0,SSW,5.8,-,N/A,,Mostly Cloudy,200,2012-10-09 22:41:00
6:44 PM,69.8,57.2,64,29.81,7.0,SSW,6.9,-,N/A,,Scattered Clouds,210,2012-10-09 23:44:00
6:50 PM,71,58,54,29.74,7,South,4.5,,,,Partly Cloudy,170,2012-10-09 23:50:00
7:40 PM,66.2,57.2,73,30.18,7.0,SSE,6.9,-,N/A,,Scattered Clouds,160,2012-10-10 00:40:00
8:44 PM,64.4,59.0,83,30.20,7.0,SSW,5.8,-,N/A,,Mostly Cloudy,210,2012-10-10 01:44:00
9:41 PM,62.6,59.0,88,29.82,7.0,Variable,2.3,-,N/A,,Scattered Clouds,0,2012-10-10 02:41:00
9:50 PM,66,60,75,29.78,5,SW,2.2,,,,Partly Cloudy,230,2012-10-10 02:50:00
10:41 PM,60.8,57.2,88,30.25,7.0,Calm,Calm,-,N/A,,Scattered Clouds,0,2012-10-10 03:41:00
11:50 PM,59.0,57.2,94,30.26,7.0,Calm,Calm,-,N/A,,Scattered Clouds,0,2012-10-10 04:50:00